Lid_Strength_Index
19 17 17 17 18 18 20 19 21 20 20 14 13 13 14 13 13 14 16 16 16 16 15 15 16 16 15 15 14 13 12 12 12 11 10 10 11 10 10 9 9 8 7 7
22 20 18 18 17 18 19 21 20 19 19 14 12 12 13 13 13 14 14 15 16 16 16 15 16 16 15 15 15 14 13 13 11 10 10 10 10 10 10 10 10 9 10 10
19 21 19 20 17 17 17 18 18 20 16 12 13 13 12 11 12 13 13 13 15 15 15 15 15 15 14 14 14 14 14 13 11 11 11 11 10 10 10 11 11 11 11 11
20 18 23 16 15 15 15 15 15 15 14 12 12 12 12 12 11 12 11 12 13 14 15 15 15 15 14 14 14 14 14 12 11 11 12 12 12 11 10 10 11 11 11 11
19 22 17 14 15 15 15 15 13 14 13 12 12 12 13 11 10 9 9 10 11 12 14 15 15 14 13 15 15 15 15 12 12 12 13 12 12 12 11 11 11 12 11 11
15 21 23 16 13 12 12 16 11 12 12 13 13 16 12 11 10 10 10 11 12 13 15 15 15 14 13 14 15 15 15 13 12 12 12 13 12 13 13 13 13 13 13 13
15 17 16 13 12 12 17 15 11 11 12 13 14 13 12 11 11 12 12 12 13 14 15 15 15 14 14 14 15 14 14 14 13 12 13 13 13 13 13 13 13 13 13 13
15 17 18 11 12 12 11 11 11 11 10 11 11 11 11 11 12 12 13 14 14 15 15 16 15 14 14 14 14 14 14 14 14 14 13 13 14 14 14 13 13 13 14 14
13 14 10 11 10 10 10 10 10 10 10 10 10 10 10 11 12 13 14 15 15 16 17 16 15 14 14 14 15 14 14 14 14 14 14 14 14 14 14 14 14 15 15 15
14 12 11 10 9 9 9 8 9 9 10 10 10 9 10 10 12 13 15 16 18 17 17 16 15 15 13 15 14 13 14 14 14 14 15 14 14 14 14 14 15 17 17 17
15 12 11 10 9 9 8 8 8 9 9 10 10 9 10 11 13 14 14 17 17 17 17 16 15 16 15 14 13 13 14 14 14 14 14 15 15 14 14 15 14 15 16 16
14 11 11 10 10 9 9 8 8 9 10 10 10 10 11 12 12 14 15 17 17 17 17 16 15 16 15 14 13 13 14 14 14 14 14 15 15 15 13 13 13 14 15 16
11 12 10 10 10 9 10 10 10 10 9 11 10 11 12 13 14 14 16 16 16 16 16 16 15 16 15 14 13 13 13 14 14 14 15 15 16 15 16 15 13 14 14 14
11 12 13 13 11 11 11 10 13 13 12 11 12 13 14 15 15 14 14 15 15 16 16 16 16 15 15 13 13 13 13 14 14 14 14 15 15 16 16 16 17 17 15 14
11 11 11 10 14 13 14 13 10 11 12 12 12 12 12 12 13 13 14 14 16 15 16 16 15 15 15 14 13 13 14 14 13 14 14 15 16 16 17 18 17 17 16 15
10 12 12 15 12 12 14 12 12 10 11 12 13 12 11 13 13 13 13 14 15 16 16 16 15 15 14 14 13 13 13 13 14 14 15 16 17 17 18 18 18 17 17 16
16 14 18 17 15 14 13 11 10 9 10 13 11 13 12 12 13 14 13 13 13 14 15 15 15 15 14 14 14 14 14 14 14 15 15 16 17 18 18 17 17 17 17 15
14 13 11 11 11 13 14 12 10 10 10 10 11 14 14 12 12 13 14 14 13 14 15 14 14 15 14 14 13 14 14 14 14 14 15 16 17 18 18 18 17 17 15 15
21 20 18 17 16 14 12 10 10 9 11 10 14 13 11 12 12 13 14 15 15 15 15 15 15 15 14 14 13 14 14 15 15 15 15 16 17 18 18 17 17 16 15 16
23 25 23 22 21 19 16 13 13 12 10 9 13 12 12 11 12 13 15 15 14 14 15 15 15 15 14 14 14 14 14 14 15 15 16 16 17 17 17 17 16 16 17 18
24 23 23 22 20 19 19 16 15 14 12 13 11 10 11 10 11 13 15 15 13 16 15 16 15 15 14 14 14 14 14 14 14 15 16 16 17 17 16 15 16 18 18 19
24 24 22 22 21 19 19 19 17 16 15 14 12 11 10 11 13 14 14 14 18 16 16 16 16 15 15 14 14 14 14 14 14 15 15 15 16 16 16 17 18 19 20 21
23 23 22 22 21 20 19 17 15 14 14 13 15 14 13 11 13 15 16 18 18 17 16 15 15 16 16 14 14 14 14 14 14 14 15 15 15 16 17 18 19 20 21 22
20 20 22 22 21 21 19 16 18 18 18 16 16 16 17 18 20 21 19 18 18 17 17 16 16 15 15 15 14 14 14 14 14 13 14 15 16 16 17 18 20 20 21 22
20 20 23 23 24 22 22 21 19 19 20 20 20 19 18 18 16 19 19 18 18 17 17 16 15 15 15 14 14 14 14 13 14 14 15 16 17 18 18 19 20 21 21 22
20 22 22 23 24 23 22 22 22 21 21 21 21 21 20 20 19 19 19 18 18 18 17 16 15 14 14 14 14 14 14 15 15 15 16 17 18 19 19 20 21 21 22 22
21 21 22 23 23 23 23 23 24 23 23 22 25 23 21 21 20 20 20 21 21 21 21 21 20 19 18 18 18 18 17 17 17 18 18 19 19 20 20 21 21 22 22 23